Time,TemperatureF,DewpointF,PressureIn,WindDirection,WindDirectionDegrees,WindSpeedMPH,WindSpeedGustMPH,Humidity,HourlyPrecipIn,Conditions,Clouds,dailyrainin,SoftwareType,DateUTC
2013-09-10 00:01:00,60.3,42.6,29.95,South,186,0.0,0.0,52,0.00,,CLR,0.00,VWS V14.01,2013-09-10 07:01:00,
2013-09-10 00:06:00,60.3,42.6,29.95,ENE,71,0.0,2.2,52,0.00,,CLR,0.00,VWS V14.01,2013-09-10 07:06:00,
2013-09-10 00:11:00,60.4,42.8,29.95,ESE,119,0.0,0.0,52,0.00,,CLR,0.00,VWS V14.01,2013-09-10 07:11:00,
2013-09-10 00:16:00,60.6,42.9,29.95,ESE,119,0.0,0.0,52,0.00,,CLR,0.00,VWS V14.01,2013-09-10 07:16:00,
2013-09-10 00:21:00,60.6,42.9,29.95,SE,127,0.0,0.0,52,0.00,,CLR,0.00,VWS V14.01,2013-09-10 07:21:00,
2013-09-10 00:26:00,60.3,43.1,29.95,SE,141,0.0,0.0,53,0.00,,CLR,0.00,VWS V14.01,2013-09-10 07:26:00,
2013-09-10 00:31:00,60.1,43.4,29.95,SE,141,0.0,0.0,54,0.00,,CLR,0.00,VWS V14.01,2013-09-10 07:31:00,
2013-09-10 00:36:00,59.7,42.6,29.95,SE,141,0.0,0.0,53,0.00,,CLR,0.00,VWS V14.01,2013-09-10 07:36:00,
2013-09-10 00:41:00,59.5,42.4,29.95,SE,141,0.0,0.0,53,0.00,,CLR,0.00,VWS V14.01,2013-09-10 07:41:00,
2013-09-10 00:46:00,59.2,42.1,29.95,SE,141,0.0,0.0,53,0.00,,CLR,0.00,VWS V14.01,2013-09-10 07:46:00,
2013-09-10 00:51:00,58.8,42.2,29.95,SE,141,0.0,0.0,54,0.00,,CLR,0.00,VWS V14.01,2013-09-10 07:51:00,
2013-09-10 00:56:00,58.5,41.9,29.95,SE,141,0.0,0.0,54,0.00,,CLR,0.00,VWS V14.01,2013-09-10 07:56:00,
2013-09-10 01:01:00,58.1,42.5,29.95,SE,141,0.0,0.0,56,0.00,,CLR,0.00,VWS V14.01,2013-09-10 08:01:00,
2013-09-10 01:06:00,57.9,42.8,29.95,SE,141,0.0,0.0,57,0.00,,CLR,0.00,VWS V14.01,2013-09-10 08:06:00,
2013-09-10 01:11:00,57.9,43.2,29.95,SE,141,0.0,0.0,58,0.00,,CLR,0.00,VWS V14.01,2013-09-10 08:11:00,
2013-09-10 01:16:00,58.3,44.5,29.95,SE,141,0.0,0.0,60,0.00,,CLR,0.00,VWS V14.01,2013-09-10 08:16:00,
2013-09-10 01:21:00,58.5,44.6,29.95,SE,141,0.0,0.0,60,0.00,,CLR,0.00,VWS V14.01,2013-09-10 08:21:00,
2013-09-10 01:26:00,58.6,44.8,29.95,SE,141,0.0,0.0,60,0.00,,CLR,0.00,VWS V14.01,2013-09-10 08:26:00,
2013-09-10 01:31:00,58.6,44.8,29.95,ESE,118,2.2,2.2,60,0.00,,CLR,0.00,VWS V14.01,2013-09-10 08:31:00,
2013-09-10 01:36:00,58.6,44.4,29.95,ESE,118,0.0,0.0,59,0.00,,CLR,0.00,VWS V14.01,2013-09-10 08:36:00,
2013-09-10 01:41:00,58.6,44.4,29.95,ESE,118,0.0,0.0,59,0.00,,CLR,0.00,VWS V14.01,2013-09-10 08:41:00,
2013-09-10 01:46:00,58.5,44.2,29.95,ESE,118,0.0,0.0,59,0.00,,CLR,0.00,VWS V14.01,2013-09-10 08:46:00,
2013-09-10 01:51:00,58.5,44.2,29.95,ESE,118,0.0,0.0,59,0.00,,CLR,0.00,VWS V14.01,2013-09-10 08:51:00,
2013-09-10 01:56:00,58.3,44.5,29.95,ESE,118,0.0,0.0,60,0.00,,CLR,0.00,VWS V14.01,2013-09-10 08:56:00,
2013-09-10 02:01:00,57.9,44.1,29.95,ESE,118,0.0,0.0,60,0.00,,CLR,0.00,VWS V14.01,2013-09-10 09:01:00,
2013-09-10 02:06:00,57.6,43.8,29.95,ESE,118,0.0,0.0,60,0.00,,CLR,0.00,VWS V14.01,2013-09-10 09:06:00,
2013-09-10 02:11:00,57.2,43.9,29.95,ESE,118,0.0,0.0,61,0.00,,CLR,0.00,VWS V14.01,2013-09-10 09:11:00,
2013-09-10 02:16:00,57.0,45.0,29.95,ESE,118,0.0,0.0,64,0.00,,CLR,0.00,VWS V14.01,2013-09-10 09:16:00,
2013-09-10 02:21:00,56.8,44.8,29.95,ESE,118,0.0,0.0,64,0.00,,CLR,0.00,VWS V14.01,2013-09-10 09:21:00,
2013-09-10 02:26:00,56.7,45.0,29.95,ESE,118,0.0,0.0,65,0.00,,CLR,0.00,VWS V14.01,2013-09-10 09:26:00,
2013-09-10 02:31:00,56.5,44.9,29.95,ESE,118,0.0,0.0,65,0.00,,CLR,0.00,VWS V14.01,2013-09-10 09:31:00,
2013-09-10 02:36:00,56.3,45.1,29.95,ESE,118,0.0,0.0,66,0.00,,CLR,0.00,VWS V14.01,2013-09-10 09:36:00,
2013-09-10 02:41:00,55.9,44.8,29.95,ESE,118,0.0,0.0,66,0.00,,CLR,0.00,VWS V14.01,2013-09-10 09:41:00,
2013-09-10 02:46:00,55.9,45.2,29.95,ESE,118,0.0,0.0,67,0.00,,CLR,0.00,VWS V14.01,2013-09-10 09:46:00,
2013-09-10 02:51:00,56.1,45.7,29.95,ESE,118,0.0,0.0,68,0.00,,CLR,0.00,VWS V14.01,2013-09-10 09:51:00,
2013-09-10 02:56:00,56.3,46.3,29.95,SE,139,0.0,3.1,69,0.00,,CLR,0.00,VWS V14.01,2013-09-10 09:56:00,
2013-09-10 03:01:00,56.7,47.0,29.95,SSW,207,0.0,3.1,70,0.00,,CLR,0.00,VWS V14.01,2013-09-10 10:01:00,
2013-09-10 03:06:00,57.0,47.3,29.95,NNW,345,0.0,0.0,70,0.00,,CLR,0.00,VWS V14.01,2013-09-10 10:06:00,
2013-09-10 03:11:00,57.2,47.5,29.95,South,172,3.6,3.6,70,0.00,,CLR,0.00,VWS V14.01,2013-09-10 10:11:00,
2013-09-10 03:16:00,57.2,47.1,29.95,West,275,0.0,3.1,69,0.00,,CLR,0.00,VWS V14.01,2013-09-10 10:16:00,
2013-09-10 03:21:00,57.4,47.3,29.95,West,275,2.7,2.7,69,0.00,,CLR,0.00,VWS V14.01,2013-09-10 10:21:00,
2013-09-10 03:26:00,57.6,47.5,29.95,NE,45,0.0,3.1,69,0.00,,CLR,0.00,VWS V14.01,2013-09-10 10:26:00,
2013-09-10 03:31:00,57.6,47.1,29.95,NE,51,3.1,3.1,68,0.00,,CLR,0.00,VWS V14.01,2013-09-10 10:31:00,
2013-09-10 03:36:00,57.7,47.3,29.95,SE,125,0.0,3.1,68,0.00,,CLR,0.00,VWS V14.01,2013-09-10 10:36:00,
2013-09-10 03:41:00,57.7,46.9,29.95,NE,37,0.0,3.1,67,0.00,,CLR,0.00,VWS V14.01,2013-09-10 10:41:00,
2013-09-10 03:46:00,57.7,46.9,29.95,NNE,12,2.7,2.7,67,0.00,,CLR,0.00,VWS V14.01,2013-09-10 10:46:00,
2013-09-10 03:51:00,57.7,46.9,29.95,North,4,0.0,2.7,67,0.00,,CLR,0.00,VWS V14.01,2013-09-10 10:51:00,
2013-09-10 03:56:00,57.7,46.9,29.95,North,4,2.2,2.2,67,0.00,,CLR,0.00,VWS V14.01,2013-09-10 10:56:00,
2013-09-10 04:01:00,57.9,46.6,29.95,ENE,76,0.0,0.0,66,0.00,,CLR,0.00,VWS V14.01,2013-09-10 11:01:00,
2013-09-10 04:06:00,57.7,46.1,29.98,ENE,62,2.7,2.7,65,0.00,,CLR,0.00,VWS V14.01,2013-09-10 11:06:00,
2013-09-10 04:11:00,57.6,45.5,29.98,NE,50,2.7,3.1,64,0.00,,CLR,0.00,VWS V14.01,2013-09-10 11:11:00,
2013-09-10 04:16:00,57.4,45.3,29.98,NE,42,2.2,2.7,64,0.00,,CLR,0.00,VWS V14.01,2013-09-10 11:16:00,
2013-09-10 04:21:00,57.6,45.1,29.95,SSW,204,3.6,3.6,63,0.00,,CLR,0.00,VWS V14.01,2013-09-10 11:21:00,
2013-09-10 04:26:00,57.6,44.7,29.95,NNE,19,0.0,2.2,62,0.00,,CLR,0.00,VWS V14.01,2013-09-10 11:26:00,
2013-09-10 04:31:00,57.4,44.5,29.95,NE,49,0.0,0.0,62,0.00,,CLR,0.00,VWS V14.01,2013-09-10 11:31:00,
2013-09-10 04:36:00,57.4,44.5,29.95,NNE,33,2.7,2.7,62,0.00,,CLR,0.00,VWS V14.01,2013-09-10 11:36:00,
2013-09-10 04:41:00,57.2,44.3,29.95,NE,45,0.0,0.0,62,0.00,,CLR,0.00,VWS V14.01,2013-09-10 11:41:00,
2013-09-10 04:46:00,57.2,44.7,29.95,NE,45,0.0,0.0,63,0.00,,CLR,0.00,VWS V14.01,2013-09-10 11:46:00,
2013-09-10 04:51:00,57.0,44.6,29.98,NE,45,0.0,0.0,63,0.00,,CLR,0.00,VWS V14.01,2013-09-10 11:51:00,
2013-09-10 04:56:00,56.8,44.8,29.98,NE,45,0.0,0.0,64,0.00,,CLR,0.00,VWS V14.01,2013-09-10 11:56:00,
2013-09-10 05:01:00,56.5,44.5,29.98,South,188,0.0,2.7,64,0.00,,CLR,0.00,VWS V14.01,2013-09-10 12:01:00,
2013-09-10 05:06:00,56.3,44.7,29.95,South,181,0.0,2.7,65,0.00,,CLR,0.00,VWS V14.01,2013-09-10 12:06:00,
2013-09-10 05:11:00,56.1,44.9,29.95,SSE,154,0.0,0.0,66,0.00,,CLR,0.00,VWS V14.01,2013-09-10 12:11:00,
2013-09-10 05:16:00,55.9,44.8,29.95,SSE,154,0.0,0.0,66,0.00,,CLR,0.00,VWS V14.01,2013-09-10 12:16:00,
2013-09-10 05:21:00,55.6,44.8,29.98,SSE,155,0.0,0.0,67,0.00,,CLR,0.00,VWS V14.01,2013-09-10 12:21:00,
2013-09-10 05:26:00,55.4,45.0,29.98,SSE,155,0.0,0.0,68,0.00,,CLR,0.00,VWS V14.01,2013-09-10 12:26:00,
2013-09-10 05:31:00,55.4,45.4,29.98,SSE,155,0.0,0.0,69,0.00,,CLR,0.00,VWS V14.01,2013-09-10 12:31:00,
2013-09-10 05:36:00,55.2,45.2,29.98,SSE,155,0.0,0.0,69,0.00,,CLR,0.00,VWS V14.01,2013-09-10 12:36:00,
2013-09-10 05:41:00,55.0,45.5,29.98,SSE,155,0.0,0.0,70,0.00,,CLR,0.00,VWS V14.01,2013-09-10 12:41:00,
2013-09-10 05:46:00,55.0,45.8,29.98,SSE,155,0.0,0.0,71,0.00,,CLR,0.00,VWS V14.01,2013-09-10 12:46:00,
2013-09-10 05:51:00,54.9,45.7,29.98,SSE,156,0.0,0.0,71,0.00,,CLR,0.00,VWS V14.01,2013-09-10 12:51:00,
2013-09-10 05:56:00,54.9,46.0,29.98,SSE,157,0.0,0.0,72,0.00,,CLR,0.00,VWS V14.01,2013-09-10 12:56:00,
2013-09-10 06:01:00,54.7,45.8,29.98,East,94,0.0,0.0,72,0.00,,CLR,0.00,VWS V14.01,2013-09-10 13:01:00,
2013-09-10 06:06:00,54.7,45.8,29.98,East,93,0.0,0.0,72,0.00,,CLR,0.00,VWS V14.01,2013-09-10 13:06:00,
2013-09-10 06:11:00,54.5,45.7,29.98,East,93,0.0,0.0,72,0.00,,CLR,0.00,VWS V14.01,2013-09-10 13:11:00,
2013-09-10 06:16:00,54.5,45.7,29.98,East,93,0.0,0.0,72,0.00,,CLR,0.00,VWS V14.01,2013-09-10 13:16:00,
2013-09-10 06:21:00,54.5,45.7,29.98,East,93,0.0,0.0,72,0.00,,CLR,0.00,VWS V14.01,2013-09-10 13:21:00,
2013-09-10 06:26:00,54.3,45.5,29.98,East,93,0.0,0.0,72,0.00,,CLR,0.00,VWS V14.01,2013-09-10 13:26:00,
2013-09-10 06:31:00,54.1,45.3,29.98,East,93,0.0,0.0,72,0.00,,CLR,0.00,VWS V14.01,2013-09-10 13:31:00,
2013-09-10 06:36:00,54.0,45.2,29.98,East,93,0.0,0.0,72,0.00,,CLR,0.00,VWS V14.01,2013-09-10 13:36:00,
2013-09-10 06:41:00,53.8,45.0,29.98,East,93,0.0,0.0,72,0.00,,CLR,0.00,VWS V14.01,2013-09-10 13:41:00,
2013-09-10 06:46:00,54.0,45.5,29.98,East,93,0.0,0.0,73,0.00,,CLR,0.00,VWS V14.01,2013-09-10 13:46:00,
2013-09-10 06:51:00,54.1,45.7,29.98,East,93,0.0,0.0,73,0.00,,CLR,0.00,VWS V14.01,2013-09-10 13:51:00,
2013-09-10 06:56:00,54.1,45.7,29.98,East,93,0.0,0.0,73,0.00,,CLR,0.00,VWS V14.01,2013-09-10 13:56:00,
2013-09-10 07:01:00,54.3,46.2,29.98,East,93,0.0,0.0,74,0.00,,CLR,0.00,VWS V14.01,2013-09-10 14:01:00,
2013-09-10 07:06:00,54.7,46.6,29.98,East,93,0.0,0.0,74,0.00,,CLR,0.00,VWS V14.01,2013-09-10 14:06:00,
2013-09-10 07:11:00,55.0,46.9,29.98,East,94,0.0,0.0,74,0.00,,CLR,0.00,VWS V14.01,2013-09-10 14:11:00,
2013-09-10 07:16:00,55.4,47.3,29.98,SSW,204,0.0,2.7,74,0.00,,CLR,0.00,VWS V14.01,2013-09-10 14:16:00,
2013-09-10 07:21:00,55.8,47.6,30.01,South,185,0.0,0.0,74,0.00,,CLR,0.00,VWS V14.01,2013-09-10 14:21:00,
2013-09-10 07:26:00,56.1,47.6,30.01,SSW,207,2.7,4.0,73,0.00,,CLR,0.00,VWS V14.01,2013-09-10 14:26:00,
2013-09-10 07:31:00,56.7,48.1,30.01,South,185,2.7,3.1,73,0.00,,CLR,0.00,VWS V14.01,2013-09-10 14:31:00,
2013-09-10 07:36:00,56.8,47.9,30.01,SSW,207,2.7,2.7,72,0.00,,CLR,0.00,VWS V14.01,2013-09-10 14:36:00,
2013-09-10 07:41:00,57.2,47.5,30.01,SSW,198,0.0,0.0,70,0.00,,CLR,0.00,VWS V14.01,2013-09-10 14:41:00,
2013-09-10 07:46:00,57.4,46.9,30.01,SSW,196,0.0,0.0,68,0.00,,CLR,0.00,VWS V14.01,2013-09-10 14:46:00,
2013-09-10 07:51:00,57.6,46.7,30.01,South,189,0.0,0.0,67,0.00,,CLR,0.00,VWS V14.01,2013-09-10 14:51:00,
2013-09-10 07:56:00,57.9,46.6,30.01,SSW,201,0.0,0.0,66,0.00,,CLR,0.00,VWS V14.01,2013-09-10 14:56:00,
2013-09-10 08:01:00,58.1,46.4,30.01,SSW,201,0.0,0.0,65,0.00,,CLR,0.00,VWS V14.01,2013-09-10 15:01:00,
2013-09-10 08:05:00,58.5,45.5,30.01,SW,215,3.1,3.1,62,0.00,,CLR,0.00,VWS V14.01,2013-09-10 15:05:00,
2013-09-10 08:10:00,58.8,45.8,30.01,SSW,209,2.7,2.7,62,0.00,,CLR,0.00,VWS V14.01,2013-09-10 15:10:00,
2013-09-10 08:15:00,59.5,46.5,30.01,SW,221,0.0,2.2,62,0.00,,CLR,0.00,VWS V14.01,2013-09-10 15:15:00,
2013-09-10 08:20:00,60.6,47.5,30.01,East,79,0.0,0.0,62,0.00,,CLR,0.00,VWS V14.01,2013-09-10 15:20:00,
2013-09-10 08:25:00,61.9,46.0,30.01,ENE,72,2.7,3.6,56,0.00,,CLR,0.00,VWS V14.01,2013-09-10 15:25:00,
2013-09-10 08:30:00,62.8,44.4,30.01,ENE,58,3.6,3.6,51,0.00,,CLR,0.00,VWS V14.01,2013-09-10 15:30:00,
2013-09-10 08:35:00,63.3,43.8,30.01,ENE,65,0.0,0.0,49,0.00,,CLR,0.00,VWS V14.01,2013-09-10 15:35:00,
2013-09-10 08:40:00,64.0,44.5,30.01,ENE,62,2.7,2.7,49,0.00,,CLR,0.00,VWS V14.01,2013-09-10 15:40:00,
2013-09-10 08:45:00,64.6,44.5,30.01,NE,56,4.9,5.4,48,0.00,,CLR,0.00,VWS V14.01,2013-09-10 15:45:00,
2013-09-10 08:50:00,65.1,43.8,30.01,East,93,2.7,2.7,46,0.00,,CLR,0.00,VWS V14.01,2013-09-10 15:50:00,
2013-09-10 08:55:00,65.8,45.1,30.01,East,81,3.1,3.1,47,0.00,,CLR,0.00,VWS V14.01,2013-09-10 15:55:00,
2013-09-10 09:00:00,66.4,44.4,30.01,NE,54,0.0,0.0,45,0.00,,CLR,0.00,VWS V14.01,2013-09-10 16:00:00,
2013-09-10 09:05:00,66.7,44.8,30.01,ENE,63,3.6,3.6,45,0.00,,CLR,0.00,VWS V14.01,2013-09-10 16:05:00,
2013-09-10 09:10:00,67.5,44.8,30.01,ENE,78,2.2,2.2,44,0.00,,CLR,0.00,VWS V14.01,2013-09-10 16:10:00,
2013-09-10 09:15:00,67.6,44.4,30.01,ENE,63,4.9,4.9,43,0.00,,CLR,0.00,VWS V14.01,2013-09-10 16:15:00,
2013-09-10 09:20:00,68.2,44.9,30.01,ENE,75,2.7,3.6,43,0.00,,CLR,0.00,VWS V14.01,2013-09-10 16:20:00,
2013-09-10 09:25:00,68.7,45.3,30.01,ENE,78,4.0,4.0,43,0.00,,CLR,0.00,VWS V14.01,2013-09-10 16:25:00,
2013-09-10 09:30:00,69.3,44.6,30.01,East,82,2.7,3.1,41,0.00,,CLR,0.00,VWS V14.01,2013-09-10 16:30:00,
2013-09-10 09:35:00,69.4,44.1,30.01,ENE,60,4.0,4.0,40,0.00,,CLR,0.00,VWS V14.01,2013-09-10 16:35:00,
2013-09-10 09:40:00,69.6,44.9,30.01,NE,50,0.0,2.7,41,0.00,,CLR,0.00,VWS V14.01,2013-09-10 16:40:00,
2013-09-10 09:45:00,69.8,43.1,30.01,ESE,116,2.2,4.5,38,0.00,,CLR,0.00,VWS V14.01,2013-09-10 16:45:00,
2013-09-10 09:50:00,70.0,42.5,30.01,ENE,68,5.4,5.8,37,0.00,,CLR,0.00,VWS V14.01,2013-09-10 16:50:00,
2013-09-10 09:55:00,70.0,42.5,30.01,ENE,76,3.6,3.6,37,0.00,,CLR,0.00,VWS V14.01,2013-09-10 16:55:00,
2013-09-10 10:00:00,70.3,43.5,30.01,East,79,3.1,3.1,38,0.00,,CLR,0.00,VWS V14.01,2013-09-10 17:00:00,
2013-09-10 10:05:00,70.9,43.3,30.01,East,81,3.1,4.0,37,0.00,,CLR,0.00,VWS V14.01,2013-09-10 17:05:00,
2013-09-10 10:10:00,71.1,44.2,30.01,NE,38,0.0,2.2,38,0.00,,CLR,0.00,VWS V14.01,2013-09-10 17:10:00,
2013-09-10 10:15:00,71.4,43.8,30.01,East,82,2.2,3.1,37,0.00,,CLR,0.00,VWS V14.01,2013-09-10 17:15:00,
2013-09-10 10:20:00,71.8,42.7,30.01,ENE,64,4.0,5.4,35,0.00,,CLR,0.00,VWS V14.01,2013-09-10 17:20:00,
2013-09-10 10:25:00,72.1,43.0,30.01,NNE,30,0.0,2.2,35,0.00,,CLR,0.00,VWS V14.01,2013-09-10 17:25:00,
2013-09-10 10:30:00,72.5,42.6,30.01,East,82,3.6,4.9,34,0.00,,CLR,0.00,VWS V14.01,2013-09-10 17:30:00,
2013-09-10 10:35:00,72.9,42.1,30.01,ENE,57,3.1,4.9,33,0.00,,CLR,0.00,VWS V14.01,2013-09-10 17:35:00,
2013-09-10 10:40:00,72.9,42.1,30.01,East,79,4.9,5.8,33,0.00,,CLR,0.00,VWS V14.01,2013-09-10 17:40:00,
2013-09-10 10:45:00,73.4,42.6,30.01,ENE,69,4.0,5.4,33,0.00,,CLR,0.00,VWS V14.01,2013-09-10 17:45:00,
2013-09-10 10:50:00,73.6,41.9,30.01,ENE,59,0.0,4.0,32,0.00,,CLR,0.00,VWS V14.01,2013-09-10 17:50:00,
2013-09-10 10:55:00,73.9,43.0,30.01,ENE,63,4.0,4.0,33,0.00,,CLR,0.00,VWS V14.01,2013-09-10 17:55:00,
2013-09-10 11:00:00,74.5,42.7,30.01,ENE,77,2.2,2.7,32,0.00,,CLR,0.00,VWS V14.01,2013-09-10 18:00:00,
2013-09-10 11:05:00,74.7,42.9,30.01,ENE,74,2.2,2.2,32,0.00,,FEW050,0.00,VWS V14.01,2013-09-10 18:05:00,
2013-09-10 11:10:00,75.0,43.2,30.01,East,92,0.0,2.7,32,0.00,,FEW050,0.00,VWS V14.01,2013-09-10 18:10:00,
2013-09-10 11:15:00,75.4,42.7,30.01,East,81,2.2,3.6,31,0.00,,FEW050,0.00,VWS V14.01,2013-09-10 18:15:00,
2013-09-10 11:20:00,75.6,42.8,30.01,ENE,74,3.1,3.6,31,0.00,,FEW050,0.00,VWS V14.01,2013-09-10 18:20:00,
2013-09-10 11:25:00,75.7,43.0,30.01,ESE,111,2.7,2.7,31,0.00,,FEW050,0.00,VWS V14.01,2013-09-10 18:25:00,
2013-09-10 11:30:00,76.1,43.3,30.01,ENE,78,0.0,2.7,31,0.00,,FEW050,0.00,VWS V14.01,2013-09-10 18:30:00,
2013-09-10 11:35:00,76.6,42.0,30.01,East,81,2.7,3.1,29,0.00,,FEW050,0.00,VWS V14.01,2013-09-10 18:35:00,
2013-09-10 11:40:00,76.8,43.9,30.01,SSW,199,4.0,4.0,31,0.00,,FEW050,0.00,VWS V14.01,2013-09-10 18:40:00,
2013-09-10 11:45:00,77.0,41.4,30.01,NE,56,0.0,2.7,28,0.00,,FEW050,0.00,VWS V14.01,2013-09-10 18:45:00,
2013-09-10 11:50:00,77.2,43.4,29.98,SSW,211,2.7,3.1,30,0.00,,FEW050,0.00,VWS V14.01,2013-09-10 18:50:00,
2013-09-10 11:55:00,77.5,41.9,29.98,NE,49,2.7,3.1,28,0.00,,FEW050,0.00,VWS V14.01,2013-09-10 18:55:00,
2013-09-10 12:00:00,77.7,41.1,29.98,East,82,2.7,2.7,27,0.00,,FEW050,0.00,VWS V14.01,2013-09-10 19:00:00,
2013-09-10 12:05:00,77.9,42.2,29.98,East,85,0.0,2.7,28,0.00,,FEW050,0.00,VWS V14.01,2013-09-10 19:05:00,
2013-09-10 12:10:00,78.3,40.6,29.98,NNW,337,0.0,0.0,26,0.00,,FEW050,0.00,VWS V14.01,2013-09-10 19:10:00,
2013-09-10 12:15:00,78.6,43.7,29.98,SSW,197,2.7,3.1,29,0.00,,FEW050,0.00,VWS V14.01,2013-09-10 19:15:00,
2013-09-10 12:20:00,78.8,43.0,29.98,WSW,258,3.6,4.0,28,0.00,,FEW050,0.00,VWS V14.01,2013-09-10 19:20:00,
2013-09-10 12:25:00,79.0,42.2,29.98,West,274,0.0,0.0,27,0.00,,FEW050,0.00,VWS V14.01,2013-09-10 19:25:00,
2013-09-10 12:30:00,79.2,38.2,29.98,ENE,63,3.1,3.6,23,0.00,,FEW050,0.00,VWS V14.01,2013-09-10 19:30:00,
2013-09-10 12:35:00,79.3,44.4,29.98,East,83,2.2,2.2,29,0.00,,FEW050,0.00,VWS V14.01,2013-09-10 19:35:00,
2013-09-10 12:40:00,79.5,42.6,29.98,East,81,2.2,2.2,27,0.00,,FEW050,0.00,VWS V14.01,2013-09-10 19:40:00,
2013-09-10 12:45:00,79.9,41.0,29.98,South,172,2.7,4.0,25,0.00,,FEW050,0.00,VWS V14.01,2013-09-10 19:45:00,
2013-09-10 12:50:00,80.1,41.1,29.95,South,179,2.7,2.7,25,0.00,,FEW050,0.00,VWS V14.01,2013-09-10 19:50:00,
2013-09-10 12:55:00,80.1,39.0,29.95,East,92,2.7,3.1,23,0.00,,FEW050,0.00,VWS V14.01,2013-09-10 19:55:00,
2013-09-10 13:00:00,80.2,39.1,29.95,ENE,73,3.6,4.0,23,0.00,,FEW050,0.00,VWS V14.01,2013-09-10 20:00:00,
2013-09-10 13:05:00,80.2,39.1,29.98,NE,36,2.7,4.0,23,0.00,,FEW050,0.00,VWS V14.01,2013-09-10 20:05:00,
2013-09-10 13:10:00,80.4,40.4,29.98,NNE,30,4.0,4.5,24,0.00,,FEW050,0.00,VWS V14.01,2013-09-10 20:10:00,
2013-09-10 13:15:00,80.2,40.2,29.98,NNE,31,3.1,4.9,24,0.00,,FEW050,0.00,VWS V14.01,2013-09-10 20:15:00,
2013-09-10 13:20:00,80.2,40.2,29.98,NE,43,0.0,2.2,24,0.00,,FEW050,0.00,VWS V14.01,2013-09-10 20:20:00,
2013-09-10 13:25:00,80.4,40.4,29.98,NE,45,0.0,3.1,24,0.00,,FEW050,0.00,VWS V14.01,2013-09-10 20:25:00,
2013-09-10 13:30:00,80.4,40.4,29.98,NE,45,0.0,0.0,24,0.00,,FEW050,0.00,VWS V14.01,2013-09-10 20:30:00,
2013-09-10 13:35:00,80.6,39.4,29.95,West,280,0.0,0.0,23,0.00,,FEW050,0.00,VWS V14.01,2013-09-10 20:35:00,
2013-09-10 13:40:00,81.0,38.6,29.95,NE,42,2.7,3.1,22,0.00,,FEW050,0.00,VWS V14.01,2013-09-10 20:40:00,
2013-09-10 13:45:00,81.0,37.4,29.95,NNE,32,0.0,2.2,21,0.00,,FEW050,0.00,VWS V14.01,2013-09-10 20:45:00,
2013-09-10 13:50:00,81.1,38.7,29.95,NW,321,0.0,0.0,22,0.00,,FEW050,0.00,VWS V14.01,2013-09-10 20:50:00,
2013-09-10 13:55:00,81.5,39.0,29.95,NW,314,2.2,2.2,22,0.00,,FEW050,0.00,VWS V14.01,2013-09-10 20:55:00,
2013-09-10 14:00:00,81.5,39.0,29.95,NNE,33,4.0,4.0,22,0.00,,FEW050,0.00,VWS V14.01,2013-09-10 21:00:00,
2013-09-10 14:05:00,81.5,37.8,29.95,ESE,116,2.2,2.2,21,0.00,,FEW060,0.00,VWS V14.01,2013-09-10 21:05:00,
2013-09-10 14:10:00,81.9,38.1,29.95,ENE,78,0.0,0.0,21,0.00,,FEW060,0.00,VWS V14.01,2013-09-10 21:10:00,
2013-09-10 14:15:00,82.0,37.0,29.95,East,80,2.2,2.2,20,0.00,,FEW060,0.00,VWS V14.01,2013-09-10 21:15:00,
2013-09-10 14:20:00,82.0,38.3,29.95,ENE,75,0.0,0.0,21,0.00,,FEW060,0.00,VWS V14.01,2013-09-10 21:20:00,
2013-09-10 14:25:00,82.0,37.0,29.95,NNE,27,3.1,5.8,20,0.00,,FEW060,0.00,VWS V14.01,2013-09-10 21:25:00,
2013-09-10 14:30:00,81.9,36.9,29.95,NE,50,0.0,0.0,20,0.00,,FEW060,0.00,VWS V14.01,2013-09-10 21:30:00,
2013-09-10 14:35:00,81.9,36.9,29.95,East,83,2.2,2.2,20,0.00,,FEW060,0.00,VWS V14.01,2013-09-10 21:35:00,
2013-09-10 14:40:00,82.0,37.0,29.95,SSW,212,2.2,3.1,20,0.00,,FEW060,0.00,VWS V14.01,2013-09-10 21:40:00,
2013-09-10 14:45:00,82.2,38.4,29.95,SSW,201,2.2,4.0,21,0.00,,FEW060,0.00,VWS V14.01,2013-09-10 21:45:00,
2013-09-10 14:50:00,82.4,38.6,29.95,West,259,4.9,5.4,21,0.00,,FEW060,0.00,VWS V14.01,2013-09-10 21:50:00,
2013-09-10 14:55:00,82.6,38.7,29.95,SW,230,2.2,5.4,21,0.00,,FEW060,0.00,VWS V14.01,2013-09-10 21:55:00,
2013-09-10 15:00:00,82.8,38.9,29.95,SW,229,0.0,0.0,21,0.00,,FEW060,0.00,VWS V14.01,2013-09-10 22:00:00,
2013-09-10 15:05:00,83.1,39.2,29.95,SW,230,2.7,2.7,21,0.00,,FEW070,0.00,VWS V14.01,2013-09-10 22:05:00,
2013-09-10 15:10:00,83.3,39.3,29.95,SW,231,0.0,0.0,21,0.00,,FEW070,0.00,VWS V14.01,2013-09-10 22:10:00,
2013-09-10 15:15:00,83.3,38.1,29.95,NE,41,0.0,0.0,20,0.00,,FEW070,0.00,VWS V14.01,2013-09-10 22:15:00,
2013-09-10 15:20:00,83.1,39.2,29.95,ENE,63,3.6,4.0,21,0.00,,FEW070,0.00,VWS V14.01,2013-09-10 22:20:00,
2013-09-10 15:25:00,82.9,37.8,29.95,SW,221,2.7,3.1,20,0.00,,FEW070,0.00,VWS V14.01,2013-09-10 22:25:00,
2013-09-10 15:30:00,82.9,39.0,29.95,SW,229,4.0,4.0,21,0.00,,FEW070,0.00,VWS V14.01,2013-09-10 22:30:00,
2013-09-10 15:35:00,82.9,39.0,29.95,South,179,0.0,0.0,21,0.00,,FEW070,0.00,VWS V14.01,2013-09-10 22:35:00,
2013-09-10 15:40:00,82.8,37.6,29.95,WSW,246,0.0,3.1,20,0.00,,FEW070,0.00,VWS V14.01,2013-09-10 22:40:00,
2013-09-10 15:45:00,82.6,37.5,29.95,SSW,209,2.7,2.7,20,0.00,,FEW070,0.00,VWS V14.01,2013-09-10 22:45:00,
2013-09-10 15:50:00,82.2,37.2,29.92,SSW,199,5.8,5.8,20,0.00,,FEW070,0.00,VWS V14.01,2013-09-10 22:50:00,
2013-09-10 15:55:00,82.0,37.0,29.92,West,263,2.7,2.7,20,0.00,,FEW070,0.00,VWS V14.01,2013-09-10 22:55:00,
2013-09-10 16:00:00,81.9,38.1,29.92,ENE,65,4.0,4.0,21,0.00,,FEW070,0.00,VWS V14.01,2013-09-10 23:00:00,
2013-09-10 16:05:00,81.9,36.9,29.92,NNE,33,3.1,3.1,20,0.00,,FEW070,0.00,VWS V14.01,2013-09-10 23:05:00,
2013-09-10 16:10:00,81.9,36.9,29.92,NNE,14,0.0,2.7,20,0.00,,FEW070,0.00,VWS V14.01,2013-09-10 23:10:00,
2013-09-10 16:15:00,81.7,36.8,29.92,North,1,0.0,2.7,20,0.00,,FEW070,0.00,VWS V14.01,2013-09-10 23:15:00,
2013-09-10 16:20:00,81.7,36.8,29.92,NE,35,2.7,2.7,20,0.00,,FEW070,0.00,VWS V14.01,2013-09-10 23:20:00,
2013-09-10 16:25:00,81.5,36.6,29.92,ENE,71,0.0,0.0,20,0.00,,FEW070,0.00,VWS V14.01,2013-09-10 23:25:00,
2013-09-10 16:30:00,81.3,36.5,29.92,West,265,5.4,5.4,20,0.00,,FEW070,0.00,VWS V14.01,2013-09-10 23:30:00,
2013-09-10 16:35:00,81.1,36.3,29.92,NW,318,0.0,2.2,20,0.00,,FEW070,0.00,VWS V14.01,2013-09-10 23:35:00,
2013-09-10 16:40:00,81.0,36.2,29.92,WNW,294,2.7,3.6,20,0.00,,FEW070,0.00,VWS V14.01,2013-09-10 23:40:00,
2013-09-10 16:45:00,80.6,35.9,29.92,SSW,207,0.0,0.0,20,0.00,,FEW070,0.00,VWS V14.01,2013-09-10 23:45:00,
2013-09-10 16:50:00,80.4,37.0,29.92,NE,48,0.0,2.2,21,0.00,,FEW070,0.00,VWS V14.01,2013-09-10 23:50:00,
2013-09-10 16:55:00,80.8,36.0,29.92,ENE,71,3.6,5.4,20,0.00,,FEW070,0.00,VWS V14.01,2013-09-10 23:55:00,
2013-09-10 17:00:00,81.3,36.5,29.92,NE,47,2.7,2.7,20,0.00,,FEW070,0.00,VWS V14.01,2013-09-11 00:00:00,
2013-09-10 17:05:00,80.8,36.0,29.92,North,0,0.0,0.0,20,0.00,,CLR,0.00,VWS V14.01,2013-09-11 00:05:00,
2013-09-10 17:10:00,80.8,36.0,29.92,NE,39,2.2,2.2,20,0.00,,CLR,0.00,VWS V14.01,2013-09-11 00:10:00,
2013-09-10 17:15:00,81.0,36.2,29.92,NE,49,2.7,2.7,20,0.00,,CLR,0.00,VWS V14.01,2013-09-11 00:15:00,
2013-09-10 17:20:00,81.0,36.2,29.92,ENE,77,4.0,4.0,20,0.00,,CLR,0.00,VWS V14.01,2013-09-11 00:20:00,
2013-09-10 17:25:00,81.1,36.3,29.92,East,87,2.7,4.0,20,0.00,,CLR,0.00,VWS V14.01,2013-09-11 00:25:00,
2013-09-10 17:30:00,81.1,36.3,29.92,NE,45,3.1,3.1,20,0.00,,CLR,0.00,VWS V14.01,2013-09-11 00:30:00,
2013-09-10 17:35:00,81.1,36.3,29.92,NE,52,3.1,4.9,20,0.00,,CLR,0.00,VWS V14.01,2013-09-11 00:35:00,
2013-09-10 17:40:00,81.0,36.2,29.92,NE,47,2.7,5.8,20,0.00,,CLR,0.00,VWS V14.01,2013-09-11 00:40:00,
2013-09-10 17:45:00,80.6,35.9,29.92,NE,45,2.7,2.7,20,0.00,,CLR,0.00,VWS V14.01,2013-09-11 00:45:00,
2013-09-10 17:50:00,80.2,36.8,29.92,NE,45,3.1,3.1,21,0.00,,CLR,0.00,VWS V14.01,2013-09-11 00:50:00,
2013-09-10 17:55:00,80.4,35.7,29.92,NNE,33,4.0,4.5,20,0.00,,CLR,0.00,VWS V14.01,2013-09-11 00:55:00,
2013-09-10 18:00:00,80.8,36.0,29.92,NE,38,0.0,3.6,20,0.00,,CLR,0.00,VWS V14.01,2013-09-11 01:00:00,
2013-09-10 18:05:00,81.0,36.2,29.92,NE,47,3.1,4.0,20,0.00,,CLR,0.00,VWS V14.01,2013-09-11 01:05:00,
2013-09-10 18:10:00,81.0,36.2,29.92,NNE,32,3.1,4.0,20,0.00,,CLR,0.00,VWS V14.01,2013-09-11 01:10:00,
2013-09-10 18:15:00,80.8,36.0,29.92,East,79,3.1,3.1,20,0.00,,CLR,0.00,VWS V14.01,2013-09-11 01:15:00,
2013-09-10 18:20:00,81.0,36.2,29.92,NE,46,3.1,3.6,20,0.00,,CLR,0.00,VWS V14.01,2013-09-11 01:20:00,
2013-09-10 18:25:00,80.8,36.0,29.92,NNE,28,3.6,3.6,20,0.00,,CLR,0.00,VWS V14.01,2013-09-11 01:25:00,
2013-09-10 18:30:00,80.8,36.0,29.92,NE,43,4.9,4.9,20,0.00,,CLR,0.00,VWS V14.01,2013-09-11 01:30:00,
2013-09-10 18:35:00,80.8,36.0,29.92,NNE,15,2.2,2.2,20,0.00,,CLR,0.00,VWS V14.01,2013-09-11 01:35:00,
2013-09-10 18:40:00,80.4,35.7,29.92,NNE,25,0.0,0.0,20,0.00,,CLR,0.00,VWS V14.01,2013-09-11 01:40:00,
2013-09-10 18:45:00,80.2,35.6,29.92,ENE,62,2.7,2.7,20,0.00,,CLR,0.00,VWS V14.01,2013-09-11 01:45:00,
2013-09-10 18:50:00,80.2,35.6,29.92,East,95,4.0,4.0,20,0.00,,CLR,0.00,VWS V14.01,2013-09-11 01:50:00,
2013-09-10 18:55:00,79.9,35.3,29.92,ENE,78,2.7,2.7,20,0.00,,CLR,0.00,VWS V14.01,2013-09-11 01:55:00,
2013-09-10 19:00:00,79.5,35.0,29.92,ENE,78,0.0,0.0,20,0.00,,CLR,0.00,VWS V14.01,2013-09-11 02:00:00,
2013-09-10 19:05:00,78.4,34.1,29.92,ENE,78,0.0,0.0,20,0.00,,CLR,0.00,VWS V14.01,2013-09-11 02:05:00,
2013-09-10 19:10:00,77.4,33.2,29.92,ENE,78,2.2,2.7,20,0.00,,CLR,0.00,VWS V14.01,2013-09-11 02:10:00,
2013-09-10 19:15:00,76.8,34.0,29.92,ENE,78,0.0,0.0,21,0.00,,CLR,0.00,VWS V14.01,2013-09-11 02:15:00,
2013-09-10 19:20:00,76.5,33.7,29.92,ENE,78,0.0,0.0,21,0.00,,CLR,0.00,VWS V14.01,2013-09-11 02:20:00,
2013-09-10 19:25:00,75.4,32.8,29.92,ENE,78,0.0,0.0,21,0.00,,CLR,0.00,VWS V14.01,2013-09-11 02:25:00,
2013-09-10 19:30:00,73.9,32.7,29.92,ENE,78,0.0,0.0,22,0.00,,CLR,0.00,VWS V14.01,2013-09-11 02:30:00,
2013-09-10 19:35:00,72.7,33.8,29.92,ENE,78,0.0,0.0,24,0.00,,CLR,0.00,VWS V14.01,2013-09-11 02:35:00,
2013-09-10 19:40:00,71.6,34.9,29.92,ENE,78,0.0,0.0,26,0.00,,CLR,0.00,VWS V14.01,2013-09-11 02:40:00,
2013-09-10 19:45:00,70.5,35.9,29.92,ENE,78,0.0,0.0,28,0.00,,CLR,0.00,VWS V14.01,2013-09-11 02:45:00,
2013-09-10 19:50:00,70.0,37.2,29.95,ENE,78,0.0,0.0,30,0.00,,CLR,0.00,VWS V14.01,2013-09-11 02:50:00,
2013-09-10 19:55:00,69.8,37.8,29.95,ENE,78,0.0,0.0,31,0.00,,CLR,0.00,VWS V14.01,2013-09-11 02:55:00,
2013-09-10 20:00:00,69.3,38.2,29.95,ENE,78,0.0,0.0,32,0.00,,CLR,0.00,VWS V14.01,2013-09-11 03:00:00,
2013-09-10 20:05:00,68.9,37.8,29.95,ENE,78,0.0,0.0,32,0.00,,CLR,0.00,VWS V14.01,2013-09-11 03:05:00,
2013-09-10 20:10:00,68.9,37.8,29.95,ENE,78,0.0,0.0,32,0.00,,CLR,0.00,VWS V14.01,2013-09-11 03:10:00,
2013-09-10 20:15:00,68.7,37.7,29.95,ENE,78,0.0,0.0,32,0.00,,CLR,0.00,VWS V14.01,2013-09-11 03:15:00,
2013-09-10 20:20:00,68.7,37.7,29.95,ENE,78,0.0,0.0,32,0.00,,CLR,0.00,VWS V14.01,2013-09-11 03:20:00,
2013-09-10 20:25:00,68.4,38.2,29.95,ENE,78,0.0,0.0,33,0.00,,CLR,0.00,VWS V14.01,2013-09-11 03:25:00,
2013-09-10 20:30:00,67.8,37.7,29.95,ENE,78,0.0,0.0,33,0.00,,CLR,0.00,VWS V14.01,2013-09-11 03:30:00,
2013-09-10 20:35:00,67.6,38.3,29.95,ENE,78,0.0,0.0,34,0.00,,CLR,0.00,VWS V14.01,2013-09-11 03:35:00,
2013-09-10 20:40:00,67.3,38.0,29.95,ENE,78,0.0,0.0,34,0.00,,CLR,0.00,VWS V14.01,2013-09-11 03:40:00,
2013-09-10 20:45:00,66.9,38.4,29.95,ENE,78,0.0,0.0,35,0.00,,CLR,0.00,VWS V14.01,2013-09-11 03:45:00,
2013-09-10 20:49:00,66.6,38.1,29.95,ENE,78,0.0,0.0,35,0.00,,CLR,0.00,VWS V14.01,2013-09-11 03:49:00,
2013-09-10 20:54:00,66.0,39.0,29.95,ENE,78,0.0,0.0,37,0.00,,CLR,0.00,VWS V14.01,2013-09-11 03:54:00,
2013-09-10 20:59:00,65.7,39.4,29.95,ENE,78,0.0,0.0,38,0.00,,CLR,0.00,VWS V14.01,2013-09-11 03:59:00,
2013-09-10 21:01:00,65.5,39.2,29.95,ENE,78,0.0,0.0,38,0.00,,CLR,0.00,VWS V14.01,2013-09-11 04:01:00,
2013-09-10 21:06:00,65.1,39.6,29.95,ENE,78,0.0,0.0,39,0.00,,CLR,0.00,VWS V14.01,2013-09-11 04:06:00,
2013-09-10 21:11:00,64.9,39.4,29.95,ENE,78,0.0,0.0,39,0.00,,CLR,0.00,VWS V14.01,2013-09-11 04:11:00,
2013-09-10 21:16:00,64.6,40.4,29.95,ENE,78,0.0,0.0,41,0.00,,CLR,0.00,VWS V14.01,2013-09-11 04:16:00,
2013-09-10 21:21:00,64.4,40.8,29.95,ENE,78,0.0,0.0,42,0.00,,CLR,0.00,VWS V14.01,2013-09-11 04:21:00,
2013-09-10 21:26:00,64.2,40.7,29.95,ENE,78,0.0,0.0,42,0.00,,CLR,0.00,VWS V14.01,2013-09-11 04:26:00,
2013-09-10 21:31:00,63.9,41.0,29.95,ENE,78,0.0,0.0,43,0.00,,CLR,0.00,VWS V14.01,2013-09-11 04:31:00,
2013-09-10 21:36:00,63.9,41.0,29.95,ENE,78,0.0,0.0,43,0.00,,CLR,0.00,VWS V14.01,2013-09-11 04:36:00,
2013-09-10 21:41:00,64.0,41.1,29.95,ENE,78,0.0,0.0,43,0.00,,CLR,0.00,VWS V14.01,2013-09-11 04:41:00,
2013-09-10 21:46:00,64.0,40.5,29.95,ENE,78,0.0,0.0,42,0.00,,CLR,0.00,VWS V14.01,2013-09-11 04:46:00,
2013-09-10 21:51:00,63.9,40.3,29.95,ENE,78,0.0,0.0,42,0.00,,CLR,0.00,VWS V14.01,2013-09-11 04:51:00,
2013-09-10 21:56:00,63.7,40.2,29.95,ENE,78,0.0,0.0,42,0.00,,CLR,0.00,VWS V14.01,2013-09-11 04:56:00,
2013-09-10 22:01:00,63.5,40.0,29.95,ENE,78,0.0,0.0,42,0.00,,CLR,0.00,VWS V14.01,2013-09-11 05:01:00,
2013-09-10 22:06:00,63.1,40.9,29.95,ENE,78,0.0,0.0,44,0.00,,CLR,0.00,VWS V14.01,2013-09-11 05:06:00,
2013-09-10 22:11:00,63.0,40.7,29.95,ENE,78,0.0,0.0,44,0.00,,CLR,0.00,VWS V14.01,2013-09-11 05:11:00,
2013-09-10 22:16:00,62.6,40.4,29.95,ENE,78,0.0,0.0,44,0.00,,CLR,0.00,VWS V14.01,2013-09-11 05:16:00,
2013-09-10 22:21:00,62.2,40.7,29.95,ENE,78,0.0,0.0,45,0.00,,CLR,0.00,VWS V14.01,2013-09-11 05:21:00,
2013-09-10 22:26:00,61.9,40.3,29.95,ENE,78,0.0,0.0,45,0.00,,CLR,0.00,VWS V14.01,2013-09-11 05:26:00,
2013-09-10 22:31:00,61.7,40.7,29.95,ENE,78,0.0,0.0,46,0.00,,CLR,0.00,VWS V14.01,2013-09-11 05:31:00,
2013-09-10 22:36:00,61.5,40.6,29.95,ENE,78,0.0,0.0,46,0.00,,CLR,0.00,VWS V14.01,2013-09-11 05:36:00,
2013-09-10 22:41:00,61.3,41.0,29.95,ENE,78,0.0,0.0,47,0.00,,CLR,0.00,VWS V14.01,2013-09-11 05:41:00,
2013-09-10 22:46:00,61.2,41.3,29.95,ENE,78,0.0,0.0,48,0.00,,CLR,0.00,VWS V14.01,2013-09-11 05:46:00,
2013-09-10 22:51:00,61.2,41.3,29.95,ENE,78,0.0,0.0,48,0.00,,CLR,0.00,VWS V14.01,2013-09-11 05:51:00,
2013-09-10 22:56:00,61.0,41.2,29.95,ENE,78,0.0,0.0,48,0.00,,CLR,0.00,VWS V14.01,2013-09-11 05:56:00,
2013-09-10 23:01:00,60.8,41.0,29.95,ENE,78,0.0,0.0,48,0.00,,CLR,0.00,VWS V14.01,2013-09-11 06:01:00,
2013-09-10 23:06:00,60.6,41.4,29.98,ENE,78,0.0,0.0,49,0.00,,CLR,0.00,VWS V14.01,2013-09-11 06:06:00,
2013-09-10 23:11:00,60.4,41.7,29.98,ENE,78,0.0,0.0,50,0.00,,CLR,0.00,VWS V14.01,2013-09-11 06:11:00,
2013-09-10 23:16:00,60.4,42.2,29.98,ENE,78,0.0,0.0,51,0.00,,CLR,0.00,VWS V14.01,2013-09-11 06:16:00,
2013-09-10 23:21:00,60.6,42.4,29.95,ENE,78,0.0,0.0,51,0.00,,CLR,0.00,VWS V14.01,2013-09-11 06:21:00,
2013-09-10 23:26:00,60.6,42.4,29.95,ENE,78,0.0,0.0,51,0.00,,CLR,0.00,VWS V14.01,2013-09-11 06:26:00,
2013-09-10 23:31:00,60.4,43.2,29.95,ENE,78,0.0,0.0,53,0.00,,CLR,0.00,VWS V14.01,2013-09-11 06:31:00,
2013-09-10 23:36:00,60.4,43.2,29.98,ENE,78,0.0,0.0,53,0.00,,CLR,0.00,VWS V14.01,2013-09-11 06:36:00,
2013-09-10 23:41:00,60.4,43.2,29.98,ENE,78,0.0,0.0,53,0.00,,CLR,0.00,VWS V14.01,2013-09-11 06:41:00,
2013-09-10 23:46:00,60.1,42.9,29.98,ENE,78,0.0,0.0,53,0.00,,CLR,0.00,VWS V14.01,2013-09-11 06:46:00,
2013-09-10 23:51:00,60.1,42.9,29.98,ENE,78,0.0,0.0,53,0.00,,CLR,0.00,VWS V14.01,2013-09-11 06:51:00,
2013-09-10 23:56:00,60.3,43.1,29.98,ENE,78,0.0,0.0,53,0.00,,CLR,0.00,VWS V14.01,2013-09-11 06:56:00,